This is the latest recevied weather packets stored in our database for station/object KX4O-13. If no packets are shown the sender has not sent any weather packets the latest 10 day(s).
| Time | Temp. | Humidity | Pressure | Rain* | Wind** | Luminosity | Snow |
|---|---|---|---|---|---|---|---|
| 1777735258 | 11.11° C | 54% | 1014.5 hPa | 0 mm | - | 425 W/m² | - |
| 1777734958 | 11.11° C | 56% | 1014.7 hPa | 0 mm | - | 462 W/m² | - |
| 1777734658 | 11.11° C | 55% | 1014.8 hPa | 0 mm | - | 371 W/m² | - |
| 1777734358 | 11.11° C | 54% | 1014.7 hPa | 0 mm | - | 371 W/m² | - |
| 1777734058 | 11.11° C | 58% | 1014.7 hPa | 0 mm | - | 494 W/m² | - |
| 1777733758 | 11.11° C | 56% | 1014.7 hPa | 0 mm | - | 494 W/m² | - |
| 1777733458 | 11.11° C | 59% | 1014.9 hPa | 0 mm | - | 436 W/m² | - |
| 1777733158 | 10.56° C | 56% | 1015 hPa | 0 mm | - | 457 W/m² | - |
| 1777732858 | 10.56° C | 58% | 1015 hPa | 0 mm | - | 436 W/m² | - |
| 1777732558 | 10.56° C | 58% | 1014.8 hPa | 0 mm | - | 413 W/m² | - |
| 1777732258 | 10.56° C | 56% | 1014.7 hPa | 0 mm | - | 441 W/m² | - |
| 1777731958 | 10.56° C | 60% | 1014.7 hPa | 0 mm | - | 404 W/m² | - |
| 1777731658 | 10° C | 58% | 1014.8 hPa | 0 mm | - | 378 W/m² | - |
| 1777731358 | 10° C | 58% | 1014.8 hPa | 0 mm | - | 338 W/m² | - |
| 1777731058 | 10° C | 59% | 1014.8 hPa | 0 mm | - | 371 W/m² | - |
| 1777730758 | 10° C | 60% | 1014.7 hPa | 0 mm | - | 378 W/m² | - |
| 1777730458 | 10° C | 60% | 1014.7 hPa | 0 mm | - | 371 W/m² | - |
| 1777730158 | 10.56° C | 60% | 1014.5 hPa | 0 mm | - | 619 W/m² | - |
| 1777729858 | 10° C | 60% | 1014.5 hPa | 0 mm | - | 508 W/m² | - |
| 1777729558 | 10° C | 60% | 1014.6 hPa | 0 mm | - | 512 W/m² | - |
| 1777729258 | 10° C | 61% | 1014.6 hPa | 0 mm | - | 487 W/m² | - |
| 1777728958 | 9.44° C | 64% | 1014.6 hPa | 0 mm | - | 455 W/m² | - |
| 1777728658 | 9.44° C | 62% | 1014.5 hPa | 0 mm | - | 301 W/m² | - |
| 1777728358 | 8.89° C | 63% | 1014.5 hPa | 0 mm | - | 274 W/m² | - |
| 1777728058 | 8.89° C | 64% | 1014.6 hPa | 0 mm | - | 255 W/m² | - |
* Rain latest hour (hover to see other rain measurements)
** Current wind speed in m/s (hover to see current wind gust speed)